Regional Weather Roundup
Issued by NWS

Home | Current Version | Previous Version | Graphics & Text | Print | Product List | Glossary On
Versions: 1 2 3 4 5 6 7 8 9 10 11 12 13 14 15 16 17 18 19 20 21 22 23 24 25 26 27 28 29 30 31 32 33 34 35 36 37 38 39 40 41 42 43 44 45 46 47 48 49 50
000
ASUS43 KLSX 290210
RWRMO

WEATHER SUMMARY FOR MISSOURI
NATIONAL WEATHER SERVICE SPRINGFIELD MO
900 PM CDT WED JUN 28 2017

NOTE: "FAIR" INDICATES FEW OR NO CLOUDS BELOW 12,000 FEET WITH NO
       SIGNIFICANT WEATHER AND/OR OBSTRUCTIONS TO VISIBILITY.
       CURRENT SKY AND/OR WEATHER CONDITIONS ARE NOT AVAILABLE FOR
       CHILLICOTHE AND FARMINGTON.

MOZ001>031-035>038-043-044-053-054-290300-
...NORTHERN AND WESTERN MISSOURI...

CITY           SKY/WX    TMP DP  RH WIND       PRES   REMARKS
KANSAS CTY INT PTCLDY    83  69  62 S23G29    29.72S
KANSAS C DTWN  CLEAR     85  69  58 S23G29    29.73S
LEE`S SUMMIT   CLEAR     83  69  62 S22G30    29.76F
ST JOSEPH      PTCLDY    84  70  62 S18G28    29.67R
CHILLICOTHE      N/A     84  69  60 S15G23    29.72R
KIRKSVILLE     CLOUDY    74  65  73 N18G29    29.84R

$$
MOZ066>068-077>081-088>096-101>105-290300-
...SOUTHWEST MISSOURI...

CITY           SKY/WX    TMP DP  RH WIND       PRES   REMARKS
SPRINGFIELD    CLEAR     78  65  63 S9        29.88R
JOPLIN         CLEAR     79  68  69 S8        29.85R
BRANSON        CLEAR     75  64  69 S5        29.92R

$$
MOZ032>034-039>042-045>050-055>058-069>072-290300-
...CENTRAL MISSOURI...

CITY           SKY/WX    TMP DP  RH WIND       PRES   REMARKS
COLUMBIA       CLOUDY    79  66  64 S9        29.83F
JEFFERSON CITY CLOUDY    82  64  54 S8        29.84R
ROLLA          CLOUDY    77  63  61 S10       29.89R
SEDALIA        CLOUDY    81  68  64 S15       29.81F
WHITEMAN AFB   PTCLDY    80  70  71 S17       29.78S
WARRENSBURG    CLOUDY    81  64  57 S10       29.79S
OSAGE BEACH    CLEAR     79  65  62 S9        29.87R

$$
MOZ051-052-059>065-290300-
...EAST CENTRAL MISSOURI...

CITY           SKY/WX    TMP DP  RH WIND       PRES   REMARKS
ST LOUIS INTL  CLOUDY    84  61  45 S10       29.89R
SPIRIT OF STL  PTCLDY    80  63  55 S5        29.86R
ST CHARLES     CLOUDY    79  61  53 S10       29.86R

$$
MOZ072>076-082>087-097>100-106>115-290300-
...SOUTH CENTRAL AND SOUTHEAST MISSOURI...

CITY           SKY/WX    TMP DP  RH WIND       PRES   REMARKS
CAPE GIRARDEAU CLEAR     77  63  61 S6        29.92S
FARMINGTON     CLEAR     75  65  70 S6        29.95R
POPLAR BLUFF   CLEAR     78  67  68 S6        29.91F
WEST PLAINS    CLEAR     77  63  61 S7        29.94S

$$



USA.gov is the U.S. government's official web portal to all federal, state and local government web resources and services.